Weather Service Report


306 
ASUS44 KFWD 180215
RWRTX 
NORTH TEXAS HOURLY WEATHER ROUNDUP
NATIONAL WEATHER SERVICE FORT WORTH TX
800 PM CST TUE JAN 17 2017

NOTE: "FAIR" INDICATES FEW OR NO CLOUDS BELOW 12,000 FEET WITH NO
SIGNIFICANT WEATHER AND/OR OBSTRUCTIONS TO VISIBILITY.

TXZ118-119-180300-
DALLAS/FORT WORTH METROPLEX
  
CITY           SKY/WX    TMP DP  RH WIND       PRES   REMARKS
DFW AIRPORT    LGT RAIN  48  45  89 NW9       30.16S                  
DALLAS LOVE    LGT RAIN  48  44  86 N8        30.17S                  
FTW MEACHAM    RAIN      48  43  82 NW7       30.19R                  
DAL-EXECUTIVE  CLOUDY    47  45  93 N7        30.16R                  
FTW-ALLIANCE   LGT RAIN  47  43  86 CALM      30.18S                  
FTW-SPINKS     CLOUDY    47  44  90 NW7       30.19R                  
ARLINGTON      CLOUDY    47  43  86 N7        30.17R                  
GRAND PRAIRIE  CLOUDY    46  42  85 N6        30.18R                  
ADDISON        LGT RAIN  46  46 100 NW7       30.18S                  
MESQUITE       CLOUDY    46  45  93 N3        30.18S                  
LANCASTER      RAIN      47  44  91 CALM      30.18R                  
$$

TXZ091>094-102>105-117-120-121-131>134-180300-
NORTH CENTRAL TEXAS
  
CITY           SKY/WX    TMP DP  RH WIND       PRES   REMARKS
SHRMAN/DENISON RAIN      46  46 100 N7        30.20F                  
GAINESVILLE    LGT RAIN  45  42  90 NW6       30.20F                  
BOWIE          RAIN      46  46 100 CALM      30.19F                  
BRIDGEPORT     LGT RAIN  46  46 100 CALM      30.19F                  
DECATUR        LGT RAIN  62  61  99 W3        30.19R                  
DENTON         LGT RAIN  46  44  93 NW3       30.20S                  
MCKINNEY       LGT RAIN  47  45  93 N6        30.18F                  
BONHAM         LGT RAIN  45  41  87 NW8       30.20R                  
GREENVILLE     LGT SNOW  46  45  93 NW3       30.21R                  
ROCKWALL       LGT RAIN  46  46  98 N6        30.17F                  
TERRELL        CLOUDY    48  43  82 N5        30.18R                  
WAXAHACHIE     CLOUDY    46  46 100 N6        30.18R                  
CLEBURNE       CLOUDY    45  45 100 N10       30.17F WCI  39          
GRANBURY       CLOUDY    47  45  91 NW5       30.17F                  
$$

TXZ083>090-098>101-113>116-127>130-139>142-154-155-180300-
WESTERN NORTH TEXAS
  
CITY           SKY/WX    TMP DP  RH WIND       PRES   REMARKS
WICHITA FALLS  LGT RAIN  45  43  93 CALM      30.18S                  
WF-KICKAPOO    RAIN      45  44  97 E3        30.19R                  
VERNON         CLOUDY    45  40  82 CALM      30.16F                  
ABILENE        CLOUDY    42  42 100 E5        30.15S WCI  39          
ABILENE-DYESS  CLOUDY    43  39  87 CALM      30.16R                  
GRAHAM         DRIZZLE   45  45 100 CALM      30.14F                  
BRECKENRIDGE   LGT RAIN  46  46  99 CALM      30.16R                  
CISCO          LGT RAIN  45  43  93 NE6       30.14S                  
RANGER         CLOUDY    43  43 100 E5        30.14F                  
MINERAL WELLS  RAIN      46  44  93 N6        30.15S FOG              
STEPHENVILLE   CLOUDY    45  42  91 CALM      30.17S                  
COMANCHE       CLOUDY    44  44 100 N8        30.14F WCI  40          
BROWNWOOD      CLOUDY    45  45 100 N6        30.13S                  
COLEMAN        LGT RAIN  45  43  93 NE6       30.13F                  
$$

TXZ143>147-156>162-174-175-180300-
CENTRAL TEXAS
  
CITY           SKY/WX    TMP DP  RH WIND       PRES   REMARKS
WACO           CLOUDY    48  45  89 N12       30.15R                  
WACO-MCGREGOR  RAIN      47  45  93 N13       30.14R                  
CORSICANA      HVY RAIN  50  44  80 N8        30.16R                  
MEXIA          CLOUDY    48  46  94 NW10      30.11S                  
HEARNE         RAIN      51  51  98 N3        30.09S                  
CAMERON        CLOUDY    50  49  95 N7        30.10R                  
TEMPLE         LGT RAIN  46  45  93 N14       30.11F                  
KILLEEN        RAIN      45  45 100 N9        30.11S FOG     WCI  40  
KILLEEN-SKYLRK RAIN      46  45  96 N9        30.13R                  
FORT HOOD      LGT RAIN  45  43  93 N7        30.14R FOG              
GATESVILLE     CLOUDY    45  45 100 CALM      30.16R                  
HAMILTON       CLOUDY    46  46  99 N12       30.13S                  
LAMPASAS       CLOUDY    44  43  94 NE8       30.10F WCI  40          
$$

TXZ095>097-106>112-122>126-135>138-148>153-164>167-180300-
EAST TEXAS
  
CITY           SKY/WX    TMP DP  RH WIND       PRES   REMARKS
PARIS          CLOUDY    48  39  71 W8        30.20R                  
SULPHUR SPRNGS CLOUDY    50  43  77 W7        30.22R                  
MOUNT PLEASANT CLOUDY    49  49  98 N3        30.15S                  
GILMER         RAIN      48  47  95 SE3       30.15R                  
MINEOLA        RAIN      50  46  87 CALM      30.19R                  
TYLER          LGT RAIN  50  48  93 NE5       30.14S                  
LONGVIEW       LGT RAIN  50  49  96 NE6       30.13S FOG              
MARSHALL       CLOUDY    50  47  91 CALM      30.15S                  
ATHENS         DRIZZLE   46  46 100 N7        30.13S                  
PALESTINE      CLOUDY    50  50  99 NE5       30.12F                  
JACKSONVILLE   CLOUDY    50  50 100 NE8       30.13S                  
HENDERSON      CLOUDY    49  49 100 NE6       30.14S                  
CENTER         CLOUDY    54  53  96 CALM      30.15R                  
NACOGDOCHES    CLOUDY    54  50  87 E3        30.11S                  
LUFKIN         CLOUDY    54  53  97 NE8       30.11S                  
$$

SUPPLEMENTAL OBSERVATIONS (CENTRAL)
  
CITY           SKY/WX    TMP DP  RH WIND       PRES   REMARKS
DENISON DAM      N/A     46  39  76 W8          N/A                   
CADDO GRASSLND   N/A     45  41  87 NW3         N/A                   
PAT MAYSE LAKE   N/A     46  41  81 W5          N/A                   
GREENVILLE       N/A     46  41  81 NW5         N/A                   
CEDAR HILL       N/A     46  43  87 N3          N/A                   
ATHENS           N/A     48  45  87 N5          N/A                   
MCGREGOR         N/A     46  45  93 VRB6G14     N/A                   
TEMPLE           N/A     46  45  93 N2          N/A                   
$$

SUPPLEMENTAL OBSERVATIONS (WEST)
  
CITY           SKY/WX    TMP DP  RH WIND       PRES   REMARKS
MILLERS CREEK    N/A     45  43  93 S5          N/A                   
POSSUM KINGDOM   N/A     45  43  93 E6          N/A                   
LBJ GRASSLAND    N/A     46  45  93 SW2         N/A                   
GRANBURY         N/A     46  45  93 N7          N/A                   
HAMBY            N/A     43  39  87 E6          N/A  WCI  39          
IVIE RESERVOIR   N/A     45  41  87 NE2         N/A                   
COLORADO BEND    N/A     46  39  76 E3          N/A                   
$$

SUPPLEMENTAL OBSERVATIONS (EAST)
  
CITY           SKY/WX    TMP DP  RH WIND       PRES   REMARKS
CLARKSVILLE      N/A     48  41  76 CALM        N/A                   
TEXARKANA        N/A     48  46  93 W1          N/A                   
CADDO LAKE       N/A    N/A N/A N/A E1          N/A                   
GILMER           N/A     48  45  87 S3          N/A                   
HENDERSON        N/A     50  48  93 NE5         N/A                   
N SABINE NF      N/A     54  52  94 MISG        N/A                   
S SABINE NF      N/A     54  52  94 NW1         N/A                   
$$

SUPPLEMENTAL OBSERVATIONS ARE A COLLECTION OF AUTOMATED INSTRUMENTS
THAT ARE MAINTAINED BY A VARIETY OF FEDERAL AND STATE AGENCIES. 
CERTAIN ELEMENTS...SUCH AS HUMIDITY VALUES AND SUSTAINED WIND 
SPEEDS...MAY BE APPROXIMATED.

  

Return to Home page


Western Regional Climate Center, wrcc@dri.edu